Plymouth, NH

5:57 AM EDT on April 24, 2017 (GMT -0400)
Plymouth

Weather History for K1P1 - January, 2013

Change the Weather History Date:

Saturday, January 12, 2013

  Actual Average (KLCI) Record (KLCI)
Temperature  
Mean Temperature 34 °F -  
Max Temperature 37 °F 28 °F 48 °F (2017)
Min Temperature 32 °F 9 °F -15 °F (1988)
Degree Days  
Heating Degree Days 30    
Moisture  
Dew Point 34 °F    
Average Humidity 99    
Maximum Humidity 100    
Minimum Humidity 94    
Precipitation  
Precipitation 0.01 in - - ()
Sea Level Pressure  
Sea Level Pressure 30.14 in    
Wind  
Wind Speed 0 mph (East)    
Max Wind Speed 4 mph    
Max Gust Speed -    
Visibility 2 miles    
Events Fog    
Averages and records for this station are not official NWS values.
T = Trace of Precipitation, MM = Missing Value Source: NWS Daily Summary

Daily Weather History Graph

Daily Weather History Graph

Search for Another Location

Airport or City:

Trip Planner

Search our weather history database for the weather conditions in past years. The results will help you decide how hot, cold, wet, or windy it might be!

Date:

Astronomy

Jan. 12, 2013 Rise Set
Actual Time 7:19 AM EST 4:32 PM EST
Civil Twilight 6:46 AM EST 5:04 PM EST
Nautical Twilight 6:11 AM EST 5:40 PM EST
Astronomical Twilight 5:36 AM EST 6:14 PM EST
Moon 7:32 AM EST (1/12) 6:01 PM EST (1/12)
Length of Visible Light 10h 17m
Length of Day
9h 13m
New Moon, 1% of the Moon is Illuminated
Jan 12
New Moon
Jan 18
First Quarter
Jan 26
Full
Feb 3
Last Quarter
Feb 10
New

Hourly Weather History & Observations

Time (EST) Temp. Windchill Dew Point Humidity Pressure Visibility Wind Dir Wind Speed Gust Speed Precip Events Conditions
12:15 AM 32.5 °F - 32.0 °F 98% 30.20 in 3.0 mi Calm Calm - 0.01 in   Unknown
12:35 AM 32.5 °F - 32.2 °F 99% 30.20 in 4.0 mi Calm Calm - 0.01 in   Unknown
12:55 AM 32.9 °F - 32.4 °F 98% 30.19 in 2.5 mi Calm Calm - 0.01 in   Mist
1:15 AM 32.5 °F - 32.2 °F 99% 30.19 in 2.0 mi Calm Calm - N/A   Unknown
1:35 AM 32.4 °F - 32.0 °F 99% 30.19 in 1.5 mi Calm Calm - N/A   Mist
1:55 AM 32.5 °F - 32.2 °F 99% 30.19 in 2.0 mi Calm Calm - N/A   Mist
2:15 AM 32.4 °F - 32.0 °F 99% 30.19 in 1.5 mi Calm Calm - N/A   Mist
2:35 AM 32.4 °F - 32.2 °F 99% 30.19 in 1.5 mi Calm Calm - N/A   Mist
2:55 AM 32.2 °F - 32.0 °F 99% 30.17 in 1.2 mi Calm Calm - N/A   Mist
3:15 AM 32.4 °F - 32.2 °F 99% 30.17 in 1.8 mi Calm Calm - N/A   Mist
3:35 AM 32.4 °F - 32.2 °F 99% 30.16 in 1.5 mi Calm Calm - N/A   Mist
3:55 AM 32.2 °F - 32.0 °F 99% 30.16 in 1.0 mi Calm Calm - N/A   Mist
4:15 AM 32.4 °F - 32.2 °F 99% 30.16 in 1.2 mi Calm Calm - N/A   Mist
4:35 AM 32.5 °F - 32.4 °F 99% 30.16 in 1.8 mi Calm Calm - N/A   Mist
5:15 AM 32.2 °F - 32.2 °F 100% 30.16 in 1.0 mi Calm Calm - N/A   Mist
5:35 AM 32.4 °F 29.1 °F 32.2 °F 99% 30.14 in 1.2 mi East 3.5 mph - N/A   Mist
5:55 AM 32.5 °F - 32.5 °F 100% 30.16 in 1.8 mi Calm Calm - N/A   Mist
6:15 AM 32.4 °F - 32.4 °F 100% 30.16 in 1.8 mi Calm Calm - N/A   Mist
6:35 AM 32.4 °F - 32.4 °F 100% 30.17 in 2.0 mi Calm Calm - N/A   Mist
7:15 AM 32.5 °F - 32.5 °F 100% 30.18 in 3.0 mi Calm Calm - N/A   Mist
7:35 AM 32.4 °F - 32.4 °F 100% 30.19 in 1.8 mi Calm Calm - N/A   Mist
8:15 AM 32.4 °F - 32.4 °F 100% 30.19 in 1.8 mi Calm Calm - N/A   Mist
8:35 AM 32.4 °F - 32.4 °F 100% 30.19 in 1.8 mi Calm Calm - N/A   Mist
8:55 AM 32.5 °F - 32.5 °F 100% 30.18 in 1.0 mi Calm Calm - N/A   Mist
9:15 AM 32.5 °F - 32.5 °F 100% 30.18 in 1.2 mi Calm Calm - N/A   Mist
9:35 AM 32.5 °F - 32.5 °F 100% 30.17 in 0.8 mi Calm Calm - N/A   Mist
9:55 AM 32.9 °F - 32.9 °F 100% 30.17 in 1.5 mi Calm Calm - N/A   Mist
10:15 AM 33.4 °F - 33.4 °F 100% 30.17 in 2.5 mi Calm Calm - N/A   Mist
10:35 AM 33.8 °F - 33.8 °F 100% 30.16 in 4.0 mi Calm Calm - N/A   Mist
10:55 AM 34.2 °F - 34.2 °F 100% 30.16 in 3.0 mi Calm Calm - N/A   Mist
11:15 AM 34.3 °F - 34.3 °F 100% 30.15 in 5.0 mi Calm Calm - N/A   Mist
11:55 AM 35.6 °F - 35.2 °F 99% 30.12 in 7.0 mi Calm Calm - N/A   Unknown
12:15 PM 35.6 °F - 35.1 °F 98% 30.12 in 7.0 mi Calm Calm - N/A   Unknown
12:35 PM 36.0 °F - 35.1 °F 97% 30.12 in 7.0 mi Calm Calm - N/A   Unknown
12:55 PM 36.7 °F - 35.6 °F 96% 30.12 in 7.0 mi Calm Calm - N/A   Unknown
1:15 PM 36.5 °F - 35.4 °F 96% 30.13 in 5.0 mi Calm Calm - N/A   Mist
1:55 PM 37.4 °F - 35.8 °F 94% 30.13 in 7.0 mi Calm Calm - N/A   Unknown
2:15 PM 37.2 °F - 35.8 °F 95% 30.12 in 7.0 mi Calm Calm - N/A   Unknown
2:35 PM 37.4 °F - 36.5 °F 97% 30.12 in 7.0 mi Calm Calm - N/A   Unknown
2:55 PM 37.6 °F - 36.1 °F 95% 30.12 in 10.0 mi Calm Calm - N/A   Unknown
3:15 PM 37.8 °F - 36.5 °F 95% 30.13 in 7.0 mi Calm Calm - N/A   Unknown
3:35 PM 37.9 °F - 36.7 °F 95% 30.13 in 5.0 mi Calm Calm - N/A   Mist
3:55 PM 37.6 °F - 36.5 °F 96% 30.12 in 5.0 mi Calm Calm - N/A   Mist
4:15 PM 37.2 °F - 36.3 °F 97% 30.12 in 4.0 mi Calm Calm - N/A   Mist
4:35 PM 37.0 °F - 36.3 °F 97% 30.12 in 4.0 mi Calm Calm - N/A   Mist
4:55 PM 36.3 °F - 35.6 °F 97% 30.13 in 1.8 mi Calm Calm - N/A   Mist
5:15 PM 35.8 °F - 35.4 °F 99% 30.12 in 1.0 mi Calm Calm - N/A   Mist
5:35 PM 35.4 °F - 34.9 °F 98% 30.12 in 0.5 mi Calm Calm - N/A Fog Fog
5:55 PM 35.2 °F - 34.9 °F 99% 30.12 in 0.8 mi Calm Calm - N/A   Mist
6:15 PM 34.5 °F - 34.2 °F 99% 30.13 in 0.5 mi Calm Calm - N/A Fog Fog
6:35 PM 34.3 °F - 34.0 °F 99% 30.13 in 0.5 mi Calm Calm - N/A Fog Fog
6:55 PM 34.2 °F - 34.0 °F 99% 30.12 in 0.5 mi Calm Calm - N/A Fog Fog
7:15 PM 34.2 °F - 34.0 °F 99% 30.11 in 0.5 mi Calm Calm - N/A Fog Fog
7:35 PM 34.0 °F - 34.0 °F 100% 30.12 in 0.8 mi Calm Calm - N/A   Mist
7:55 PM 34.2 °F - 34.2 °F 100% 30.12 in 0.8 mi Calm Calm - N/A   Mist
8:15 PM 34.0 °F - 34.0 °F 100% 30.12 in 0.5 mi Calm Calm - N/A Fog Fog
8:35 PM 33.8 °F - 33.8 °F 100% 30.11 in 0.5 mi Calm Calm - N/A Fog Fog
8:55 PM 33.4 °F - 33.4 °F 100% 30.11 in 0.5 mi Calm Calm - N/A Fog Fog
9:15 PM 33.4 °F - 33.4 °F 100% 30.11 in 0.5 mi Calm Calm - N/A Fog Fog
9:35 PM 33.4 °F - 33.4 °F 100% 30.11 in 0.5 mi Calm Calm - N/A Fog Fog
9:55 PM 33.4 °F - 33.4 °F 100% 30.10 in 0.5 mi Calm Calm - N/A Fog Fog
10:15 PM 33.1 °F - 33.1 °F 100% 30.11 in 0.5 mi Calm Calm - N/A Fog Fog
10:35 PM 33.4 °F - 33.4 °F 100% 30.10 in 0.5 mi Calm Calm - N/A Fog Fog
10:55 PM 33.3 °F - 33.3 °F 100% 30.11 in 0.5 mi Calm Calm - N/A Fog Fog
11:15 PM 33.3 °F - 33.3 °F 100% 30.12 in 0.5 mi Calm Calm - N/A Fog Fog
11:35 PM 33.3 °F - 33.3 °F 100% 30.11 in 0.5 mi Calm Calm - N/A Fog Fog
11:55 PM 33.3 °F - 33.3 °F 100% 30.11 in 0.5 mi Calm Calm - N/A Fog Fog